sat.trackr.live / text

‹ back to catalog

STARLINK-11293 [DTC]

NORAD 61249 · 2024-175G

PAYLOAD ACTIVE UNKNOWN

§ Identity

Operator
Country
US
Launch date
2024-09-25
Launch site
AFWTR
Launch vehicle
Mass (kg)
RCS (m²)

Purposes: comms

External: N2YO · Heavens-Above · Gunter

§ Orbital elements

Epoch: 2026-05-25T02:40:04.006272Z

Period
91.74 min
Inclination
53.1593°
Eccentricity
0.0000934
Mean motion
15.69700577 rev/d
Perigee alt
359.1 km
Apogee alt
360.4 km
Semi-major
6,737.9 km
B*
1.2810e-5
RAAN
39.2147°
Arg perigee
100.3900°
Mean anomaly
259.7223°
Rev number
9,537

§ Raw data

STARLINK-11293 [DTC]1 61249U 24175G   26145.11115748  .00000963  00000+0  12810-4 0  99902 61249  53.1593  39.2147 0000934 100.3900 259.7223 15.69700577 95376

JSON: /api/v1/satellites/61249 · /tle

For live sub-satellite position, see the globe view (requires WebGL).

§ Visibility from observer

Set your observer location to see the next 7 days of passes ≥ 10°. The values pass through the URL so the page stays shareable.

No JS? Fill the form by hand. The geolocation button needs JavaScript.